Regional Weather Roundup
Issued by NWS

Home | Current Version | Previous Version | Text Only | Print | Product List | Glossary On
Versions: 1 2 3 4 5 6 7 8 9 10 11 12 13 14 15 16 17 18 19 20 21 22 23 24 25 26 27 28 29 30 31 32 33 34 35 36 37 38 39 40 41 42 43 44 45 46 47 48 49 50
000
ASUS45 KREV 012110
RWRNV
NEVADA REGIONAL WEATHER ROUNDUP
NATIONAL WEATHER SERVICE RENO NV
200 PM PDT SAT AUG 01 2015

NOTE: "FAIR" INDICATES FEW OR NO CLOUDS BELOW 12,000 FEET WITH NO
SIGNIFICANT WEATHER AND/OR OBSTRUCTIONS TO VISIBILITY.

NVZ001-003-004-012200-
WESTERN NEVADA

CITY           SKY/WX    TMP DP  RH WIND       PRES   REMARKS
RENO           PTSUNNY   93  37  14 VRB3      30.06F
CARSON CITY    FAIR      90  37  15 S7        30.10F
MINDEN         FAIR      84  48  28 S10       30.11F
PYRAMID LAKE     N/A     88 N/A N/A N3          N/A
FALLON         PTSUNNY   96  39  13 NW9       30.03F
LOVELOCK       MOSUNNY   98  34  10 NW6       30.02F
HAWTHORNE      SUNNY     90  36  14 NW9       30.07F
$$

NVZ002-CAZ072-073-012200-
NORTHERN AND CENTRAL SIERRA

CITY           SKY/WX    TMP DP  RH WIND       PRES   REMARKS
S. LAKE TAHOE  PTSUNNY   79  44  28 CALM      30.24F
TRUCKEE        PTSUNNY   84  45  24 W3        30.21F
SQUAW VLY 8000   N/A     73  39  29 NW2         N/A
SUSANVILLE     SUNNY     97  32  10 E3        30.05F
BLUE CANYON    SUNNY     81  51  35 W10       30.20F
MAMMOTH LAKES  FAIR      84  39  20 E8G18     30.28F
BRIDGEPORT     PTSUNNY   72  44  36 VRB6      30.28R
$$

NVZ030-031-036-012200-
NORTHERN NEVADA

CITY           SKY/WX    TMP DP  RH WIND       PRES   REMARKS
ELKO           MOSUNNY   95  21   7 NE6       30.12F
WINNEMUCCA     SUNNY     98  21   6 CALM      30.04F
WENDOVER       PTSUNNY   93  30  10 SE9       30.09F
$$

NVZ035-037-012200-
CENTRAL NEVADA

CITY           SKY/WX    TMP DP  RH WIND       PRES   REMARKS
ELY            PTSUNNY   86  31  13 W15       30.22S
EUREKA           N/A     93  20   7 N10       30.17F
$$

NVZ013-014-012200-
SOUTH CENTRAL NEVADA

CITY           SKY/WX    TMP DP  RH WIND       PRES   REMARKS
TONOPAH        CLOUDY    89  43  20 SE7G17    30.14F
$$

NVZ017-020-022-012200-
SOUTHERN NEVADA

CITY           SKY/WX    TMP DP  RH WIND       PRES   REMARKS
LAS VEGAS      CLOUDY    81  64  56 W14       30.00F
N. LAS VEGAS   LGT RAIN  78  66  66 NW17      30.03F
NELLIS AFB     CLOUDY    79  65  62 W16G24    30.00F
HENDERSON      CLOUDY    81  63  54 W9        30.08
MERCURY        CLOUDY    83  57  41 E28G39    30.05R
$$


USA.gov is the U.S. government's official web portal to all federal, state and local government web resources and services.